Location: Bretagne
(43.8474°N, 0.4650°W)
Time: 14:59:30
(UTC+00:00)

Meteor 1-12 Rocket - Visible Passes

Search period start: 11 April 2026 00:00
Search period end: 21 April 2026 00:00
Orbit: 855 x 924 km, 81.2° (Epoch: 11 April)

Date Brightness Start Highest point End Pass type
(mag) Time Alt. Az. Time Alt. Az. Time Alt. Az.
11 Apr 4.3 20:06:50 10° S 20:12:45 77° E 20:18:47 10° NNE visible
11 Apr 6.9 21:53:21 10° WSW 21:57:14 18° WNW 22:01:09 10° NNW visible
12 Apr 4.3 20:06:19 10° S 20:12:17 87° E 20:18:21 10° N visible
12 Apr 7.1 21:53:28 10° W 21:56:54 15° WNW 22:00:22 10° NNW visible
13 Apr 4.5 20:05:50 10° SSW 20:11:49 82° W 20:17:53 10° N visible
13 Apr 7.2 21:53:42 10° W 21:56:34 14° WNW 21:59:28 10° NNW visible
14 Apr 4.6 20:05:24 10° SSW 20:11:21 73° W 20:17:24 10° N visible
14 Apr 7.3 21:54:10 10° W 21:56:16 12° WNW 21:58:23 10° NW visible
15 Apr 4.9 20:05:00 10° SSW 20:10:55 64° WNW 20:16:55 10° N visible
15 Apr 7.5 21:55:20 10° WNW 21:55:58 10° WNW 21:56:36 10° NW visible
16 Apr 5.1 20:04:37 10° SSW 20:10:29 56° WNW 20:16:25 10° N visible
17 Apr 5.4 20:04:16 10° SSW 20:10:03 49° WNW 20:15:53 10° N visible
18 Apr 5.7 20:03:58 10° SW 20:09:38 43° WNW 20:15:21 10° N visible
19 Apr 6.0 20:03:41 10° SW 20:09:13 38° WNW 20:14:48 10° N visible
20 Apr 6.2 20:03:27 10° SW 20:08:49 33° WNW 20:14:13 10° N visible
